Weather History for Saipan, MP

Change the Weather History Date:

Wednesday, October 17, 2012

  Actual Average Record
Temperature  
Mean Temperature 84 °F -  
Max Temperature 89 °F 84 °F 89 °F (2012)
Min Temperature 80 °F 76 °F 75 °F (2005)
Cooling Degree Days 20    
Growing Degree Days 34 (Base 50)    
Moisture  
Dew Point 76 °F    
Average Humidity 78    
Maximum Humidity 87    
Minimum Humidity 69    
Precipitation  
Precipitation 0.05 in - - ()
Sea Level Pressure  
Sea Level Pressure 29.98 in    
Wind  
Wind Speed 12 mph (ENE)    
Max Wind Speed 18 mph    
Max Gust Speed 24 mph    
Visibility 10 miles    
Events      
Averages and records for this station are not official NWS values.
T = Trace of Precipitation, MM = Missing Value Source: NWS Daily Summary

Daily Weather History Graph

Daily Weather History Graph

Search for Another Location

Airport:

Trip Planner

Search our weather history database for the weather conditions in past years. The results will help you decide how hot, cold, wet, or windy it might be!

Date:

Astronomy

Oct. 17, 2012 Rise Set
Actual Time 6:09 AM ChST 5:55 PM ChST
Civil Twilight 5:47 AM ChST 6:17 PM ChST
Nautical Twilight 5:22 AM ChST 6:42 PM ChST
Astronomical Twilight 4:57 AM ChST 7:07 PM ChST
Moon 7:34 AM ChST (10/17) 7:22 PM ChST (10/17)
Length of Visible Light 12h 29m
Length of Day
11h 46m
Waxing Crescent, 4% of the Moon is Illuminated
Oct 17
Waxing Crescent
Oct 22
First Quarter
Oct 30
Full
Nov 7
Last Quarter
Nov 14
New

Hourly Weather History & Observations

Time (ChST) Temp. Heat Index Dew Point Humidity Pressure Visibility Wind Dir Wind Speed Gust Speed Precip Events Conditions
12:54 AM 82.0 °F 89.4 °F 75.9 °F 82% 30.00 in 10.0 mi ENE 10.4 mph - N/A   Partly Cloudy
1:54 AM 82.0 °F 89.4 °F 75.9 °F 82% 29.98 in 10.0 mi NE 15.0 mph - N/A   Scattered Clouds
2:54 AM 82.0 °F 89.4 °F 75.9 °F 82% 29.98 in 10.0 mi NE 8.1 mph - N/A   Clear
3:54 AM 80.1 °F 85.4 °F 75.9 °F 87% 29.97 in 10.0 mi NE 9.2 mph - 0.01 in   Scattered Clouds
4:54 AM 80.1 °F 85.1 °F 75.0 °F 85% 29.98 in 10.0 mi NNE 6.9 mph - 0.03 in   Scattered Clouds
5:54 AM 81.0 °F 87.3 °F 75.9 °F 85% 29.99 in 10.0 mi ENE 9.2 mph - N/A   Scattered Clouds
6:54 AM 82.9 °F 91.8 °F 77.0 °F 82% 30.00 in 10.0 mi ENE 10.4 mph - N/A   Scattered Clouds
7:54 AM 82.9 °F 91.8 °F 77.0 °F 82% 30.02 in 10.0 mi ENE 12.7 mph 20.7 mph 0.00 in   Mostly Cloudy
8:54 AM 86.0 °F 98.3 °F 78.1 °F 77% 30.03 in 10.0 mi NE 10.4 mph - N/A   Scattered Clouds
9:54 AM 86.0 °F 98.3 °F 78.1 °F 77% 30.03 in 10.0 mi ENE 17.3 mph - 0.01 in   Mostly Cloudy
10:54 AM 88.0 °F 101.3 °F 78.1 °F 72% 30.02 in 10.0 mi ENE 13.8 mph 23.0 mph N/A   Scattered Clouds
11:54 AM 88.0 °F 100.2 °F 77.0 °F 70% 30.00 in 10.0 mi ENE 18.4 mph 24.2 mph N/A   Mostly Cloudy
12:54 PM 89.1 °F 103.2 °F 78.1 °F 70% 29.97 in 10.0 mi East 16.1 mph - N/A   Scattered Clouds
1:54 PM 88.0 °F 100.2 °F 77.0 °F 70% 29.95 in 10.0 mi ENE 16.1 mph - N/A   Partly Cloudy
2:54 PM 88.0 °F 100.2 °F 77.0 °F 70% 29.94 in 10.0 mi East 12.7 mph - N/A   Partly Cloudy
3:54 PM 87.1 °F 97.3 °F 75.9 °F 69% 29.93 in 10.0 mi ENE 17.3 mph - N/A   Scattered Clouds
4:54 PM 86.0 °F 96.0 °F 75.9 °F 72% 29.94 in 10.0 mi ENE 12.7 mph - N/A   Partly Cloudy
5:54 PM 84.0 °F 92.6 °F 75.9 °F 76% 29.94 in 10.0 mi ENE 13.8 mph - N/A   Partly Cloudy
6:54 PM 82.9 °F 91.8 °F 77.0 °F 82% 29.96 in 10.0 mi ENE 15.0 mph 20.7 mph N/A   Scattered Clouds
7:54 PM 82.9 °F 90.8 °F 75.9 °F 79% 29.98 in 10.0 mi East 15.0 mph - N/A   Partly Cloudy
8:54 PM 82.9 °F 90.8 °F 75.9 °F 79% 29.99 in 10.0 mi East 12.7 mph - N/A   Clear
9:54 PM 82.9 °F 90.8 °F 75.9 °F 79% 29.99 in 10.0 mi ENE 13.8 mph - N/A   Scattered Clouds
10:54 PM 82.9 °F 90.2 °F 75.0 °F 77% 29.99 in 10.0 mi East 13.8 mph 21.9 mph N/A   Partly Cloudy
11:28 PM 82.4 °F 89.5 °F 75.2 °F 79% 29.92 in 2.0 mi East 12.7 mph - N/A   Partly Cloudy
11:35 PM 82.4 °F 89.5 °F 75.2 °F 79% 29.92 in 10.0 mi ENE 15.0 mph - N/A   Scattered Clouds
11:54 PM 82.9 °F 90.8 °F 75.9 °F 79% 29.98 in 10.0 mi East 11.5 mph - N/A   Mostly Cloudy